Hohn Airport ETNH

Flugplatz Daten

Name: Hohn Airport

Ident: ETNH

Lat: 54,31219864

Long: 9,538169861

Platzhöhe: 39 ft

IataCode:

City:

Metar

2022/08/14 05:20
ETNH 140520Z AUTO 06006KT 9999 // ////// 21/17 Q1014 ///

Taf

2021/07/29 17:52
TAF ETNH 292100Z 2917/3017 CNL 2100 BY ETGL
Gewünschte Webcam nicht vorhanden? Dann fügen Sie eine hinzu. Sie wird dann so schnell wie möglich freigeschaltet
Url: Title: